This is the latest recevied weather packets stored in our database for station/object M0OAB-1. If no packets are shown the sender has not sent any weather packets the latest 10 day(s).
| Time | Temp. | Humidity | Pressure | Rain* | Wind** | Luminosity | Snow |
|---|---|---|---|---|---|---|---|
| 1777826644 | 19.44° C | 53% | 995.1 hPa | 0 mm | - | - | - |
| 1777826524 | 19.44° C | 54% | 995 hPa | 0 mm | - | - | - |
| 1777825925 | 19.44° C | 53% | 995.1 hPa | 0 mm | - | - | - |
| 1777825684 | 19.44° C | 54% | 995.1 hPa | 0 mm | - | - | - |
| 1777825204 | 19.44° C | 54% | 995.1 hPa | 0 mm | - | - | - |
| 1777824724 | 20° C | 53% | 995.1 hPa | 0 mm | - | - | - |
| 1777824004 | 20° C | 53% | 995.1 hPa | 0 mm | - | - | - |
| 1777823764 | 20° C | 53% | 995.1 hPa | 0 mm | - | - | - |
| 1777823524 | 20° C | 53% | 995.1 hPa | 0 mm | - | - | - |
| 1777823404 | 20° C | 52% | 994.9 hPa | 0 mm | - | - | - |
| 1777823045 | 20.56° C | 52% | 995 hPa | 0 mm | - | - | - |
| 1777822564 | 20.56° C | 54% | 995.1 hPa | 0 mm | - | - | - |
| 1777822444 | 20.56° C | 54% | 995.2 hPa | 0 mm | - | - | - |
| 1777822205 | 20.56° C | 54% | 995.1 hPa | 0 mm | - | - | - |
| 1777820165 | 19.44° C | 55% | 995.5 hPa | 0 mm | - | - | - |
| 1777818845 | 19.44° C | 54% | 995.3 hPa | 0 mm | - | - | - |
| 1777815724 | 20.56° C | 53% | 995.7 hPa | 0 mm | - | - | - |
| 1777815604 | 20.56° C | 54% | 995.6 hPa | 0 mm | - | - | - |
| 1777815364 | 20.56° C | 54% | 995.8 hPa | 0 mm | - | - | - |
| 1777814764 | 21.11° C | 53% | 995.6 hPa | 0 mm | - | - | - |
| 1777812244 | 21.11° C | 55% | 995.8 hPa | 0 mm | - | - | - |
| 1777811524 | 21.11° C | 56% | 995.8 hPa | 0 mm | - | - | - |
| 1777811404 | 21.11° C | 54% | 995.7 hPa | 0 mm | - | - | - |
| 1777810684 | 20.56° C | 59% | 995.6 hPa | 0 mm | - | - | - |
| 1777810444 | 20° C | 57% | 995.6 hPa | 0 mm | - | - | - |
* Rain latest hour (hover to see other rain measurements)
** Current wind speed in m/s (hover to see current wind gust speed)